sat.trackr.live / text

‹ back to catalog

STARLINK-34245

NORAD 64193 · 2025-113Z

PAYLOAD ACTIVE UNKNOWN

§ Identity

Operator
Country
US
Launch date
2025-05-28
Launch site
AFETR
Launch vehicle
Mass (kg)
RCS (m²)

Purposes: comms

External: N2YO · Heavens-Above · Gunter

§ Orbital elements

Epoch: 2026-09-20T16:33:20.752992Z

Period
93.85 min
Inclination
53.1586°
Eccentricity
0.0000609
Mean motion
15.34411082 rev/d
Perigee alt
462.3 km
Apogee alt
463.1 km
Semi-major
6,840.8 km
B*
4.4811e-4
RAAN
260.8953°
Arg perigee
79.7475°
Mean anomaly
280.3596°
Rev number
7,494

§ Raw data

STARLINK-342451 64193U 25113Z   26263.68982353  .00014799  00000+0  44811-3 0  99982 64193  53.1586 260.8953 0000609  79.7475 280.3596 15.34411082 74946

JSON: /api/v1/satellites/64193 · /tle

For live sub-satellite position, see the globe view (requires WebGL).

§ Visibility from observer

Set your observer location to see the next 7 days of passes ≥ 10°. The values pass through the URL so the page stays shareable.

No JS? Fill the form by hand. The geolocation button needs JavaScript.